Change the Weather History Date:

Thursday, October 25, 2012

  Actual Average (KJFX) Record (KJFX)
Temperature  
Mean Temperature 62 °F -  
Max Temperature 77 °F 69 °F 86 °F (2011)
Min Temperature 48 °F 46 °F 27 °F (1965)
Degree Days  
Heating Degree Days 2    
Growing Degree Days 12 (Base 50)    
Moisture  
Dew Point 56 °F    
Average Humidity 80    
Maximum Humidity 100    
Minimum Humidity 52    
Precipitation  
Precipitation 0.00 in - - ()
Sea Level Pressure  
Sea Level Pressure 30.10 in    
Wind  
Wind Speed 2 mph (SSE)    
Max Wind Speed 12 mph    
Max Gust Speed -    
Visibility 9 miles    
Events      
Averages and records for this station are not official NWS values.
T = Trace of Precipitation, MM = Missing Value Source: NWS Daily Summary

Daily Weather History Graph

Daily Weather History Graph

Search for Another Location

Airport or City:

Trip Planner

Search our weather history database for the weather conditions in past years. The results will help you decide how hot, cold, wet, or windy it might be!

Date:

Astronomy

Oct. 25, 2012 Rise Set
Actual Time 7:04 AM CDT 6:03 PM CDT
Civil Twilight 6:38 AM CDT 6:29 PM CDT
Nautical Twilight 6:09 AM CDT 6:58 PM CDT
Astronomical Twilight 5:40 AM CDT 7:27 PM CDT
Moon 3:41 PM CDT (10/25) 3:10 AM CDT (10/25)
Length of Visible Light 11h 50m
Length of Day
10h 59m
Waxing Gibbous, 84% of the Moon is Illuminated
Oct 25
Waxing Gibbous
Oct 29
Full
Nov 6
Last Quarter
Nov 13
New
Nov 20
First Quarter

Hourly Weather History & Observations

Time (CDT) Temp. Dew Point Humidity Pressure Visibility Wind Dir Wind Speed Gust Speed Precip Events Conditions
12:56 AM 51.8 °F 51.8 °F 100% 30.09 in 10.0 mi Calm Calm - N/A   Clear
1:56 AM 50.9 °F 50.9 °F 100% 30.11 in 10.0 mi Calm Calm - N/A   Clear
2:56 AM 50.9 °F 50.9 °F 100% 30.10 in 10.0 mi Calm Calm - N/A   Clear
3:56 AM 50.9 °F 50.9 °F 100% 30.09 in 8.0 mi Calm Calm - N/A   Clear
4:56 AM 50.0 °F 50.0 °F 100% 30.10 in 7.0 mi Calm Calm - N/A   Clear
5:56 AM 48.9 °F 48.9 °F 100% 30.11 in 6.0 mi Calm Calm - N/A   Clear
6:56 AM 54.9 °F 54.9 °F 100% 30.10 in 10.0 mi SE 3.5 mph - N/A   Clear
8:56 AM 64.9 °F 55.9 °F 73% 30.14 in 10.0 mi SSE 9.2 mph - N/A   Clear
9:56 AM 66.9 °F 57.9 °F 73% 30.15 in 10.0 mi SE 3.5 mph - N/A   Clear
10:56 AM 72.9 °F 59.0 °F 62% 30.15 in 10.0 mi South 8.1 mph - N/A   Clear
11:56 AM 77.0 °F 57.9 °F 52% 30.14 in 10.0 mi SSE 11.5 mph - N/A   Clear
12:56 PM 75.9 °F 59.0 °F 56% 30.11 in 10.0 mi South 6.9 mph - N/A   Mostly Cloudy
1:56 PM 77.9 °F 59.9 °F 54% 30.09 in 10.0 mi South 9.2 mph - N/A   Mostly Cloudy
2:56 PM 74.8 °F 59.0 °F 58% 30.07 in 10.0 mi SSE 6.9 mph - N/A   Scattered Clouds
3:56 PM 77.9 °F 59.0 °F 52% 30.06 in 10.0 mi South 6.9 mph - N/A   Clear
4:56 PM 73.9 °F 59.9 °F 61% 30.07 in 10.0 mi Calm Calm - N/A   Partly Cloudy
5:56 PM 68.9 °F 61.9 °F 78% 30.08 in 10.0 mi Calm Calm - N/A   Scattered Clouds
6:56 PM 64.9 °F 59.9 °F 84% 30.08 in 10.0 mi Calm Calm - N/A   Clear
8:56 PM 59.9 °F 59.0 °F 97% 30.09 in 10.0 mi Calm Calm - N/A   Clear
11:56 PM 55.9 °F 55.9 °F 100% 30.08 in 6.0 mi Calm Calm - N/A   Clear